This is the latest recevied weather packets stored in our database for station/object KM6YFK-13. If no packets are shown the sender has not sent any weather packets the latest 10 day(s).
| Time | Temp. | Humidity | Pressure | Rain* | Wind** | Luminosity | Snow |
|---|---|---|---|---|---|---|---|
| 1777845208 | 23.33° C | 51% | 1016.8 hPa | 0 mm | - | 348 W/m² | - |
| 1777844907 | 23.33° C | 50% | 1016.9 hPa | 0 mm | - | 367 W/m² | - |
| 1777844607 | 23.33° C | 52% | 1016.8 hPa | 0 mm | - | 386 W/m² | - |
| 1777844307 | 23.33° C | 52% | 1016.8 hPa | 0 mm | - | 404 W/m² | - |
| 1777844008 | 23.33° C | 50% | 1016.8 hPa | 0 mm | - | 422 W/m² | - |
| 1777843707 | 23.33° C | 53% | 1016.9 hPa | 0 mm | - | 443 W/m² | - |
| 1777843407 | 23.33° C | 52% | 1016.9 hPa | 0 mm | - | 462 W/m² | - |
| 1777843107 | 23.33° C | 52% | 1016.9 hPa | 0 mm | - | 481 W/m² | - |
| 1777842808 | 23.33° C | 51% | 1016.8 hPa | 0 mm | - | 499 W/m² | - |
| 1777842507 | 23.33° C | 51% | 1016.8 hPa | 0 mm | - | 518 W/m² | - |
| 1777842207 | 23.33° C | 50% | 1016.8 hPa | 0 mm | - | 537 W/m² | - |
| 1777841907 | 23.89° C | 50% | 1016.8 hPa | 0 mm | - | 555 W/m² | - |
| 1777841607 | 23.33° C | 52% | 1017 hPa | 0 mm | - | 572 W/m² | - |
| 1777841308 | 23.33° C | 54% | 1017 hPa | 0 mm | - | 596 W/m² | - |
| 1777841007 | 23.33° C | 53% | 1017.1 hPa | 0 mm | - | 611 W/m² | - |
| 1777840707 | 23.89° C | 53% | 1017 hPa | 0 mm | - | 636 W/m² | - |
| 1777840407 | 23.89° C | 49% | 1017 hPa | 0 mm | - | 652 W/m² | - |
| 1777840108 | 23.33° C | 50% | 1017 hPa | 0 mm | - | 607 W/m² | - |
| 1777839807 | 23.33° C | 51% | 1016.9 hPa | 0 mm | - | 679 W/m² | - |
| 1777839507 | 23.33° C | 53% | 1016.9 hPa | 0 mm | - | 695 W/m² | - |
| 1777839207 | 23.33° C | 51% | 1017.1 hPa | 0 mm | - | 712 W/m² | - |
| 1777838907 | 23.33° C | 52% | 1017.1 hPa | 0 mm | - | 730 W/m² | - |
| 1777838607 | 23.33° C | 52% | 1017.2 hPa | 0 mm | - | 743 W/m² | - |
| 1777838307 | 23.33° C | 50% | 1017.3 hPa | 0 mm | - | 756 W/m² | - |
| 1777838008 | 23.33° C | 52% | 1017.4 hPa | 0 mm | - | 766 W/m² | - |
* Rain latest hour (hover to see other rain measurements)
** Current wind speed in m/s (hover to see current wind gust speed)